Wind_Speed
6 5 5 6 6 8 9 9 9 9 10 10 11 11 11 12 12 13 15 15 17 18 19 19 19 19 20 21 23 25 27 28 28 28 29 29 28 28 29 30 31 31
5 5 6 7 7 8 9 10 10 10 11 11 11 11 11 11 11 12 14 16 17 18 19 19 19 19 19 19 21 23 25 26 27 28 28 28 28 27 27 29 29 31
6 5 6 7 8 9 10 10 10 10 11 11 11 11 12 12 12 11 13 15 17 17 18 18 19 20 20 19 19 21 23 24 26 27 26 27 27 27 27 28 29 31
6 5 4 6 7 8 9 12 13 13 12 12 11 11 11 12 12 11 12 15 17 17 17 18 19 20 19 19 20 21 22 24 25 25 25 25 26 26 27 26 26 29
8 8 7 8 9 9 10 12 13 14 14 14 13 13 12 12 12 12 12 13 15 16 17 18 18 18 18 19 20 21 23 24 25 24 24 25 25 25 25 25 24 26
10 11 12 12 13 12 12 12 13 15 16 16 15 13 13 12 12 12 12 13 13 14 16 17 18 18 17 18 19 21 22 23 24 23 24 25 25 25 24 23 24 25
14 16 15 15 15 14 14 15 16 16 16 16 15 14 14 13 11 11 11 12 12 13 14 16 18 18 18 18 19 20 21 22 22 23 24 26 25 25 24 23 24 25
17 18 17 16 17 17 17 17 17 17 15 16 17 17 17 15 12 11 11 11 12 14 14 14 16 17 18 18 19 20 21 21 22 22 24 25 25 24 23 22 24 26
19 19 18 18 19 19 19 19 18 18 16 16 17 18 18 17 16 14 12 11 12 14 14 14 15 16 16 18 18 19 20 21 22 21 22 23 24 24 24 23 24 26
21 20 20 20 20 20 20 19 19 19 18 18 18 19 18 17 18 17 15 12 12 14 15 15 16 15 16 17 18 19 20 21 21 20 20 22 23 24 24 23 23 25
22 21 22 22 21 20 20 20 20 19 19 19 19 20 19 18 19 19 17 15 14 15 15 15 15 15 15 15 15 16 17 19 21 20 20 21 22 24 24 22 23 25
22 22 22 22 21 21 20 20 21 21 20 20 21 20 18 19 21 20 19 18 17 16 15 14 14 14 14 14 14 15 15 17 19 20 21 21 22 23 24 24 23 24
22 21 21 20 20 20 20 20 21 22 22 22 22 21 19 21 23 22 20 19 18 17 16 14 14 15 15 15 15 15 15 16 17 19 21 21 21 22 23 24 23 22
20 20 19 20 20 20 20 21 22 22 22 22 23 23 23 25 26 24 23 22 20 20 19 16 15 16 16 17 17 16 15 16 17 18 19 19 21 22 23 22 21 21
19 19 20 20 20 21 21 21 22 22 22 23 23 23 24 26 26 26 26 26 24 24 22 20 18 16 16 19 20 19 16 15 15 16 17 18 20 22 23 22 21 21
20 21 21 21 21 21 20 21 22 22 23 23 23 23 24 25 27 27 27 27 27 26 25 24 21 19 19 21 20 18 17 16 14 15 16 16 18 20 21 21 20 19
22 22 22 22 21 21 20 20 21 22 23 23 23 24 24 25 26 27 27 27 27 27 27 26 24 24 25 24 19 16 15 15 14 14 14 15 16 17 18 19 19 18
22 23 22 21 20 20 20 20 21 21 23 23 24 24 25 25 26 27 28 28 28 29 29 28 29 30 28 24 19 14 11 12 12 10 10 11 12 13 15 16 16 17
20 23 24 22 21 20 20 21 21 22 22 23 23 24 25 26 27 29 30 29 28 31 32 31 33 33 28 23 18 11 8 9 8 6 5 6 7 8 11 13 14 15
20 22 23 24 23 23 22 22 22 22 22 22 23 25 26 27 28 30 32 31 31 32 34 35 35 33 28 24 18 11 7 6 5 2 2 2 3 4 5 7 9 11
21 21 22 23 24 24 24 24 23 23 22 21 22 24 25 26 27 29 32 33 34 35 36 38 37 32 27 23 18 13 9 8 8 6 3 3 3 3 3 3 5 6
20 21 21 22 23 24 25 25 24 23 22 21 22 23 24 25 26 28 31 33 36 37 37 39 38 33 27 24 20 16 14 14 14 13 12 11 10 8 7 5 4 4
19 20 21 22 23 24 24 24 24 23 23 22 22 23 24 25 26 28 31 34 37 38 38 39 40 36 29 25 22 20 19 19 20 20 19 19 17 15 13 10 7 6
18 19 21 22 23 24 24 23 23 23 23 23 23 22 22 23 24 28 32 35 37 37 38 39 42 39 32 27 25 23 23 24 24 25 25 24 24 23 20 17 14 10
20 20 20 21 22 23 23 23 23 22 23 23 23 23 22 23 25 28 32 34 36 37 39 41 43 41 36 31 27 26 27 28 29 30 30 29 29 29 28 27 23 18
22 21 21 21 22 23 24 24 24 24 24 25 25 24 24 25 26 29 31 33 35 38 40 41 42 43 41 36 32 30 30 31 32 32 30 30 32 34 34 34 32 28
Wind_Direction
33 25 19 16 9 360 356 352 348 346 344 348 349 343 334 327 322 316 307 300 298 298 298 294 286 277 274 277 276 271 270 271 269 264 260 258 257 258 258 254 249 244
45 46 39 28 12 355 349 345 341 341 340 341 341 340 335 331 330 324 316 309 303 300 299 297 294 285 277 277 277 274 272 271 268 264 260 258 257 255 253 251 250 244
53 47 33 22 13 5 3 1 359 354 349 345 339 339 337 333 330 326 321 317 311 305 300 296 293 287 283 281 276 272 271 271 271 269 264 260 257 254 251 250 250 249
46 46 42 27 18 16 16 16 14 9 1 352 342 337 334 330 326 322 319 318 315 312 306 300 295 289 286 284 277 272 272 275 278 276 270 266 261 256 254 251 250 251
56 59 56 39 27 23 21 19 14 7 357 348 338 329 322 321 322 323 322 318 314 312 311 309 303 295 289 286 282 277 274 277 282 280 274 270 267 261 257 255 251 249
58 52 49 47 46 44 38 28 14 2 354 346 340 334 325 318 316 321 328 328 322 313 309 310 310 303 295 292 289 286 282 280 283 282 276 272 270 267 263 258 252 245
52 49 55 59 54 44 34 22 8 2 357 352 353 355 348 339 328 325 332 339 339 330 318 314 313 310 304 296 290 291 292 289 286 282 277 274 272 270 267 261 252 242
53 57 61 56 45 34 24 16 7 5 3 360 3 4 1 358 355 347 343 347 353 349 337 323 315 313 310 303 295 293 296 297 293 286 280 277 273 270 267 262 254 245
61 61 56 45 37 30 22 17 12 9 8 6 6 6 5 6 5 360 355 354 357 354 347 335 322 316 312 309 304 302 301 300 298 293 287 281 274 269 265 260 252 246
63 56 47 40 35 31 26 22 17 11 9 8 6 5 7 8 5 2 0 359 357 353 349 341 333 326 321 315 313 312 309 305 301 295 291 287 279 272 268 262 251 245
59 50 43 39 37 34 30 25 20 15 13 10 6 6 8 9 5 2 3 2 357 352 346 343 341 337 333 326 321 318 313 308 303 295 291 288 282 277 273 266 256 248
54 49 42 39 40 38 33 29 25 23 20 15 11 10 9 8 6 4 4 1 358 355 347 342 343 340 335 329 322 316 312 307 303 297 292 288 282 279 276 268 260 252
51 47 42 41 41 37 33 29 27 26 24 21 21 20 17 14 12 10 9 4 359 354 347 342 338 333 331 332 327 320 314 307 302 296 292 291 287 282 277 270 262 255
49 46 44 42 39 35 32 29 28 27 25 24 25 25 23 21 18 15 12 9 5 358 352 348 340 330 330 333 331 326 317 308 304 298 292 291 292 288 280 272 264 256
51 50 47 41 37 35 32 30 29 27 26 24 24 23 21 20 19 16 12 10 7 4 359 354 347 335 329 328 325 322 316 308 303 299 294 291 290 289 284 278 270 260
55 54 48 42 39 36 34 33 31 28 26 24 23 20 18 17 18 16 14 9 6 4 2 358 354 343 331 324 318 311 308 306 303 296 292 292 290 287 285 283 277 268
55 52 47 43 40 37 37 36 33 30 27 24 22 20 17 16 16 15 13 10 6 4 3 2 0 351 339 328 316 303 299 302 307 303 295 292 289 283 280 279 277 275
51 48 46 44 39 36 39 39 36 33 29 25 23 20 18 17 17 16 14 11 7 6 7 8 4 358 350 337 322 308 297 300 308 308 296 291 288 282 278 276 276 276
53 48 47 46 42 39 42 43 40 36 31 27 25 23 21 21 21 21 18 14 10 9 12 14 9 6 5 358 343 326 306 310 322 315 294 294 298 293 286 281 281 279
58 53 49 46 44 44 45 45 43 40 35 30 28 27 26 24 24 24 22 19 16 15 18 19 15 15 20 17 7 357 340 347 15 19 272 289 306 304 293 284 284 279
59 56 51 46 43 44 45 44 42 42 39 34 32 31 30 28 27 26 25 24 22 22 25 24 21 22 27 27 25 29 35 49 64 75 77 51 24 8 350 313 291 278
59 58 55 50 45 44 44 43 41 41 40 38 36 36 34 33 32 31 29 28 27 27 28 28 26 28 32 34 38 46 54 59 60 59 58 50 40 33 23 2 332 300
62 63 60 54 49 47 45 44 44 42 41 41 39 37 37 36 36 36 36 34 32 31 30 30 30 32 36 40 44 48 53 55 55 56 55 52 49 45 38 30 14 351
67 68 64 57 52 50 48 48 48 46 44 45 42 39 39 39 40 42 42 41 39 35 35 36 35 35 38 45 49 53 56 56 55 55 53 51 50 48 45 43 38 30
71 71 65 58 56 55 53 51 51 50 51 51 48 44 42 43 45 46 46 45 43 41 41 41 40 39 40 45 50 56 59 58 57 55 50 47 48 48 48 47 47 52
72 70 65 61 60 60 58 56 55 55 55 55 53 50 48 47 48 49 48 47 47 47 45 45 44 43 43 44 48 54 59 61 59 54 49 47 48 48 48 47 48 53
Height
818 819 818 817 817 816 815 813 812 812 811 810 809 809 808 807 806 805 804 803 802 801 800 800 799 798 796 795 794 793 792 791 790 790 789 789 789 788 788 788 788 789
818 818 817 817 816 815 814 813 812 811 810 810 809 808 807 806 805 804 803 802 801 800 799 798 797 795 794 793 791 790 789 788 787 787 787 786 785 785 785 785 786 786
818 817 817 817 816 815 814 813 812 811 810 809 808 807 806 804 804 802 801 800 799 798 796 795 794 793 792 791 789 788 787 786 785 784 784 784 783 783 782 782 783 782
817 817 816 817 816 815 814 813 812 810 809 808 807 805 804 803 802 801 799 798 797 795 794 793 792 790 789 788 787 786 785 784 783 782 782 781 780 780 780 780 780 779
817 817 816 816 815 814 813 812 811 810 809 808 806 805 803 802 801 799 798 796 794 793 792 790 789 788 787 786 785 784 783 782 781 781 780 779 778 778 777 777 777 776
817 816 815 815 814 813 813 812 811 810 808 807 806 804 802 801 799 798 796 794 792 791 790 788 787 785 784 784 783 782 781 780 779 778 778 776 775 775 775 775 775 774
817 816 815 814 813 813 812 811 810 809 808 807 805 803 801 799 797 796 794 793 791 789 788 786 785 783 782 782 780 780 779 777 777 776 775 774 773 773 772 772 772 771
817 816 815 814 813 812 812 810 810 809 807 806 804 801 799 797 795 794 792 791 790 788 787 785 783 781 780 779 778 777 776 775 774 773 772 771 770 770 770 769 769 769
816 816 815 814 813 812 811 810 809 807 806 804 802 800 798 796 794 792 790 789 788 787 785 783 782 780 778 777 776 775 774 773 772 771 770 769 768 767 767 767 767 766
817 816 815 814 813 812 811 810 808 807 805 803 801 799 797 795 793 791 788 787 786 785 784 782 780 778 776 775 774 773 772 771 769 768 767 766 765 765 765 765 765 764
817 816 815 814 813 812 811 810 808 806 805 803 801 798 797 794 792 790 787 786 785 784 783 781 779 777 775 773 772 771 770 769 767 766 765 764 763 762 762 762 761 761
818 817 816 815 814 812 811 810 808 807 805 803 801 798 797 794 792 790 787 785 784 782 781 779 778 776 773 772 771 769 768 767 765 763 762 761 760 760 759 759 757 757
818 817 816 815 814 812 811 810 808 807 805 803 801 799 797 795 792 790 787 785 783 781 780 778 776 775 772 770 769 767 766 764 762 761 759 758 758 757 756 756 756 756
819 818 817 816 814 813 811 810 808 807 805 803 801 799 797 795 792 790 787 785 783 781 779 777 775 773 771 769 767 765 764 762 760 759 757 756 755 753 753 753 754 754
819 819 817 816 815 813 812 810 808 807 805 803 801 799 797 795 792 790 787 784 782 780 778 775 774 772 770 768 765 763 761 760 758 757 755 754 752 751 750 750 751 751
820 819 818 817 815 814 812 811 809 808 806 804 802 800 797 795 792 790 787 784 782 779 777 774 772 771 769 766 764 761 759 757 756 755 753 752 751 749 748 748 748 749
821 820 819 817 816 815 813 811 810 808 806 805 802 800 798 795 792 790 787 785 782 779 777 774 771 769 766 763 760 759 757 755 754 753 751 751 750 749 748 747 747 747
822 821 820 818 817 816 814 812 811 809 807 805 803 800 798 796 793 791 788 786 783 780 777 773 770 767 763 760 757 756 755 753 752 751 750 750 749 748 748 747 747 746
823 822 821 820 818 817 815 813 811 810 808 806 804 802 799 797 795 792 789 787 784 781 777 773 770 766 762 757 755 754 753 752 751 750 750 750 749 748 748 747 747 746
824 823 822 821 820 818 816 814 812 810 809 807 805 803 800 798 796 793 791 788 785 781 777 773 770 766 762 758 755 754 753 752 751 751 750 750 749 748 748 747 747 746
825 825 824 823 821 819 817 815 813 811 810 808 807 804 802 800 798 795 793 789 786 782 778 774 771 768 763 760 757 755 754 754 753 752 751 750 749 749 749 748 747 747
827 826 825 824 822 820 818 816 815 813 811 810 808 806 804 802 800 797 795 791 788 784 780 776 774 770 766 763 761 759 757 756 755 754 753 752 751 751 750 749 748 747
828 828 827 825 823 822 820 818 817 815 813 811 809 808 806 804 802 800 797 793 790 786 783 780 777 773 770 767 764 762 760 759 758 757 755 754 753 753 752 750 749 748
830 829 828 827 825 823 822 820 818 817 815 813 811 810 808 807 805 802 799 796 793 790 787 784 781 778 774 771 768 766 764 762 761 760 758 757 756 755 754 752 750 749
831 831 830 828 827 825 823 822 821 819 817 815 813 812 811 809 806 803 801 798 796 794 791 787 785 783 779 776 773 770 768 766 765 763 762 762 760 758 757 755 753 751
833 832 832 830 829 827 825 824 822 821 819 817 816 814 813 811 808 806 803 802 799 797 794 792 790 788 785 782 779 775 773 771 768 767 767 767 765 762 760 759 757 755